Arcata, CA

5:20 PM PDT on May 22, 2017 (GMT -0700)
Arcata

Weather History for KACV - April, 2014

Change the Weather History Date:

Tuesday, April 22, 2014

  Actual Average Record
Temperature  
Mean Temperature 48 °F -  
Max Temperature 55 °F 55 °F 68 °F (2013)
Min Temperature 41 °F 41 °F 36 °F (2011)
Degree Days  
Heating Degree Days 18    
Moisture  
Dew Point 43 °F    
Average Humidity 84    
Maximum Humidity 97    
Minimum Humidity 62    
Precipitation  
Precipitation 0.23 in - - ()
Sea Level Pressure  
Sea Level Pressure 30.10 in    
Wind  
Wind Speed 3 mph (SSE)    
Max Wind Speed 10 mph    
Max Gust Speed -    
Visibility 7 miles    
Events Fog , Rain    
Averages and records for this station are not official NWS values.
T = Trace of Precipitation, MM = Missing Value Source: NWS Daily Summary

Daily Weather History Graph

Daily Weather History Graph

Search for Another Location

Airport or City:

Trip Planner

Search our weather history database for the weather conditions in past years. The results will help you decide how hot, cold, wet, or windy it might be!

Date:

Astronomy

Apr. 22, 2014 Rise Set
Actual Time 6:26 AM PDT 8:03 PM PDT
Civil Twilight 5:57 AM PDT 8:32 PM PDT
Nautical Twilight 5:22 AM PDT 9:08 PM PDT
Astronomical Twilight 4:45 AM PDT 9:45 PM PDT
Moon 2:23 AM PDT (4/22) 1:08 PM PDT (4/22)
Length of Visible Light 14h 35m
Length of Day
13h 37m
Last Quarter, 45% of the Moon is Illuminated
Apr 22
Last Quarter
Apr 28
New
May 6
First Quarter
May 14
Full
May 21
Last Quarter

Hourly Weather History & Observations

Time (PDT) Temp. Windchill Dew Point Humidity Pressure Visibility Wind Dir Wind Speed Gust Speed Precip Events Conditions
12:53 AM 46.9 °F - 44.1 °F 90% 30.04 in 10.0 mi Calm Calm - N/A   Overcast
1:53 AM 46.9 °F - 44.1 °F 90% 30.05 in 10.0 mi East 3.5 mph - 0.00 in   Overcast
2:15 AM 46.9 °F - 45.0 °F 93% 30.03 in 5.0 mi ESE 3.5 mph - 0.01 in Rain Light Rain
2:31 AM 46.9 °F - 45.0 °F 93% 30.04 in 2.0 mi Calm Calm - 0.06 in Rain Rain
2:43 AM 46.9 °F - 45.0 °F 93% 30.04 in 3.0 mi Calm Calm - 0.09 in Rain Rain
2:53 AM 46.9 °F - 45.0 °F 93% 30.06 in 8.0 mi Calm Calm - 0.09 in Rain Light Rain
3:32 AM 45.0 °F - 43.0 °F 93% 30.04 in 1.8 mi Calm Calm - 0.00 in   Scattered Clouds
3:39 AM 45.0 °F - 43.0 °F 93% 30.04 in 0.8 mi Calm Calm - 0.00 in   Mostly Cloudy
3:46 AM 45.0 °F - 44.1 °F 97% 30.04 in 0.5 mi Calm Calm - 0.00 in Fog Fog
3:53 AM 45.0 °F 43.5 °F 43.0 °F 93% 30.06 in 1.0 mi SSE 3.5 mph - 0.00 in   Overcast
3:58 AM 46.0 °F 44.8 °F 44.1 °F 93% 30.05 in 3.0 mi South 3.5 mph - N/A   Overcast
4:10 AM 45.0 °F 40.6 °F 42.1 °F 90% 30.05 in 2.5 mi NNE 8.1 mph - 0.06 in Rain Rain
4:25 AM 45.0 °F 42.6 °F 41.0 °F 86% 30.05 in 7.0 mi NE 4.6 mph - 0.08 in Rain Light Rain
4:53 AM 45.0 °F 43.5 °F 42.1 °F 90% 30.07 in 10.0 mi ENE 3.5 mph - 0.09 in Rain Light Rain
5:06 AM 45.0 °F - 42.1 °F 90% 30.06 in 10.0 mi Calm Calm - 0.00 in   Overcast
5:23 AM 44.1 °F 42.5 °F 42.1 °F 93% 30.06 in 10.0 mi East 3.5 mph - 0.00 in   Mostly Cloudy
5:33 AM 44.1 °F - 42.1 °F 93% 30.06 in 10.0 mi Calm Calm - 0.00 in   Mostly Cloudy
5:53 AM 43.0 °F 41.3 °F 41.0 °F 93% 30.09 in 10.0 mi East 3.5 mph - 0.00 in   Partly Cloudy
6:06 AM 43.0 °F - 39.9 °F 89% 30.07 in 1.8 mi Calm Calm - N/A   Partly Cloudy
6:17 AM 41.0 °F - 39.9 °F 96% 30.07 in 0.5 mi Calm Calm - N/A Fog Fog
6:28 AM 41.0 °F 38.0 °F 39.0 °F 93% 30.07 in 1.2 mi ESE 4.6 mph - N/A   Clear
6:46 AM 41.0 °F - 39.0 °F 93% 30.08 in 3.0 mi Calm Calm - N/A   Clear
6:53 AM 41.0 °F 39.0 °F 39.0 °F 93% 30.10 in 5.0 mi ESE 3.5 mph - N/A   Clear
7:53 AM 46.0 °F 43.9 °F 44.1 °F 93% 30.12 in 10.0 mi East 4.6 mph - N/A   Clear
8:53 AM 48.0 °F - 44.1 °F 86% 30.13 in 10.0 mi Variable 4.6 mph - N/A   Scattered Clouds
9:00 AM 48.9 °F - 45.0 °F 86% 30.11 in 10.0 mi SSE 5.8 mph - N/A   Mostly Cloudy
9:53 AM 50.0 °F - 45.0 °F 83% 30.13 in 7.0 mi SW 5.8 mph - 0.01 in   Overcast
10:10 AM 48.9 °F - 46.0 °F 90% 30.11 in 2.5 mi SW 8.1 mph - 0.02 in Rain Light Rain
10:19 AM 50.0 °F - 46.9 °F 89% 30.11 in 6.0 mi WSW 5.8 mph - 0.02 in   Mostly Cloudy
10:53 AM 52.0 °F - 43.0 °F 71% 30.14 in 10.0 mi NW 4.6 mph - 0.02 in   Partly Cloudy
11:35 AM 51.1 °F - 44.1 °F 77% 30.13 in 10.0 mi NNW 5.8 mph - N/A   Overcast
11:53 AM 52.0 °F - 43.0 °F 71% 30.15 in 10.0 mi Calm Calm - N/A   Mostly Cloudy
12:06 PM 53.1 °F - 42.1 °F 66% 30.13 in 10.0 mi Variable 3.5 mph - N/A   Partly Cloudy
12:53 PM 54.0 °F - 42.1 °F 64% 30.16 in 10.0 mi WNW 8.1 mph - N/A   Clear
1:53 PM 54.0 °F - 42.1 °F 64% 30.15 in 10.0 mi West 9.2 mph - N/A   Clear
2:53 PM 54.0 °F - 41.0 °F 62% 30.17 in 10.0 mi West 9.2 mph - N/A   Clear
3:53 PM 54.0 °F - 43.0 °F 66% 30.17 in 10.0 mi West 9.2 mph - N/A   Partly Cloudy
4:53 PM 54.0 °F - 44.1 °F 69% 30.16 in 10.0 mi WSW 9.2 mph - N/A   Clear
5:53 PM 54.0 °F - 43.0 °F 66% 30.17 in 10.0 mi WSW 10.4 mph - N/A   Scattered Clouds
6:53 PM 52.0 °F - 43.0 °F 71% 30.17 in 10.0 mi SW 6.9 mph - N/A   Overcast
7:53 PM 51.1 °F - 43.0 °F 74% 30.17 in 10.0 mi SSW 5.8 mph - N/A   Overcast
8:53 PM 50.0 °F - 43.0 °F 77% 30.17 in 10.0 mi SE 3.5 mph - N/A   Overcast
9:53 PM 50.0 °F - 43.0 °F 77% 30.17 in 8.0 mi SSE 3.5 mph - 0.00 in Rain Light Rain
10:53 PM 48.9 °F - 43.0 °F 80% 30.17 in 10.0 mi ESE 6.9 mph - 0.02 in   Overcast
11:53 PM 48.9 °F - 42.1 °F 77% 30.16 in 10.0 mi SE 6.9 mph - N/A   Overcast